(179674) = 2002 QL61

Discovered at Palomar on 2002-08-17 by NEAT.

Orbit

Orbit type: Main Belt

Note: WebGL enabled browser required.

epoch2023-09-13.0
epoch JD2460200.5
perihelion date2023-03-25.08127
perihelion JD2460028.58127
argument of perihelion (°)148.70715
ascending node (°)163.30559
inclination (°)3.99001
eccentricity0.1298260
perihelion distance (AU)1.9891795
Tisserand w.r.t. Jupiter3.6
ΔV w.r.t. Earth (km/sec)8.8
semimajor axis (AU)2.2859559
mean anomaly (°)49.02587
mean daily motion (°/day)0.28516880
aphelion distance (AU)2.583
period (years)3.46
P-vector [x]0.66965754
P-vector [y]-0.69495558
P-vector [z]-0.26190747
Q-vector [x]0.74240099
Q-vector [y]0.63589859
Q-vector [z]0.21088803
absolute magnitude17.42
phase slope0.15
uncertainty0
referenceMPEC 2024-A65
observations used365
oppositions18
arc length (days)10414
first opposition used1995
last opposition used2024
residual rms (arc-secs)0.75
perturbers coarse indicatorM-v
perturbers precise indicator003Ek
first observation date used1995-07-02.0
last observation date used2024-01-05.0
computer nameMPCLINUX
JD of orbit computation2456639.753896
perihelion JD uncertainty (days)6.0355E-05
argument of perihelion uncertainty (°)5.9326E-05
ascending node uncertainty (°)5.6894E-05
inclination uncertainty (°)5.3534E-06
eccentricity uncertainty 4.5526E-08
perihelion distance uncertainty (AU)1.0283E-07
Minimum Orbit Intersection Distances (in AU)
for orbit epoch: 2460200.5, reference: E2024-A65
Mercury1.56018
Venus1.26508
Earth0.97581
Mars0.60303
Jupiter2.64649
Saturn6.52965
Uranus15.904
Neptune27.5371

Observations

373 total observations over interval: 1995 07 02.31779 – 2024 01 05.255588
These data are available for download (format description).

Date (UT) J2000 RA J2000 Dec Magn Location Ref
1995 07 02.31779 21 21 04.19 -10 19 01.9 20.4 V 691 – Steward Observatory, Kitt Peak-Spacewatch MPS 109823
1995 07 02.34398 21 21 03.89 -10 19 03.5 20.4 V 691 – Steward Observatory, Kitt Peak-Spacewatch MPS 109823
1995 07 02.37062 21 21 03.57 -10 19 05.4 20.6 V 691 – Steward Observatory, Kitt Peak-Spacewatch MPS 109823
2001 02 20.424830 11 18 53.798 +04 16 37.40 20.82 V 645 – Apache Point-Sloan Digital Sky Survey MPS 109823
2001 02 20.428302 11 18 53.624 +04 16 38.84 21.76   645 – Apache Point-Sloan Digital Sky Survey MPS 109823
2002 07 30.59120 22 38 32.03 -05 48 06.0 19.5 R 608 – Haleakala-AMOS MPS 105071
2002 07 30.60155 22 38 31.83 -05 48 08.3 19.6 R 608 – Haleakala-AMOS MPS 105071
2002 07 30.61205 22 38 31.56 -05 48 11.9 19.5 R 608 – Haleakala-AMOS MPS 105071
2002 08 17.46126 22 27 44.47 -07 38 41.2 19.4 R 644 – Palomar Mountain/NEAT MPS 105071
2002 08 17.47144 22 27 43.96 -07 38 46.2 19.3 R 644 – Palomar Mountain/NEAT MPS 105071
2002 08 17.48259 22 27 43.42 -07 38 50.7 19.2 R 644 – Palomar Mountain/NEAT MPS 105071
2002 08 28.23618 22 18 54.95 -09 04 17.5 18.7 R 644 – Palomar Mountain/NEAT MPS 105071
2002 08 28.31057 22 18 50.98 -09 04 54.0 18.8 R 644 – Palomar Mountain/NEAT MPS 105071
2002 08 28.38358 22 18 47.11 -09 05 29.1 18.5 R 644 – Palomar Mountain/NEAT MPS 105071
2002 09 05.20903 22 12 28.92 -10 07 31.1 19.6   704 – Lincoln Laboratory ETS, New Mexico MPS 109823
2002 09 05.22329 22 12 28.28 -10 07 37.7 19.5   704 – Lincoln Laboratory ETS, New Mexico MPS 109823
2002 09 05.23744 22 12 27.60 -10 07 42.7 19.7   704 – Lincoln Laboratory ETS, New Mexico MPS 109823
2002 09 05.25159 22 12 26.86 -10 07 49.2 19.4   704 – Lincoln Laboratory ETS, New Mexico MPS 109823
2002 09 05.26570 22 12 26.23 -10 07 57.0 19.8   704 – Lincoln Laboratory ETS, New Mexico MPS 109823
2002 09 14.20485 22 06 21.29 -11 11 22.1 19.6 R 644 – Palomar Mountain/NEAT MPS 105071
2002 09 14.22605 22 06 20.48 -11 11 30.4 19.5 R 644 – Palomar Mountain/NEAT MPS 105071
2002 09 14.24699 22 06 19.70 -11 11 38.5 19.5 R 644 – Palomar Mountain/NEAT MPS 105071
2002 09 15.25204 22 05 45.43 -11 18 00.9 19.5 R 644 – Palomar Mountain/NEAT MPS 105071
2002 09 15.27326 22 05 44.67 -11 18 09.1 19.3 R 644 – Palomar Mountain/NEAT MPS 105071
2002 09 15.29421 22 05 43.88 -11 18 16.7 19.5 R 644 – Palomar Mountain/NEAT MPS 105071
2004 01 18.32414 07 55 36.19 +16 04 15.8 21.1 V 691 – Steward Observatory, Kitt Peak-Spacewatch MPS 109823
2004 01 18.35546 07 55 34.07 +16 04 23.5 21.1 V 691 – Steward Observatory, Kitt Peak-Spacewatch MPS 109823
2004 01 18.38362 07 55 32.20 +16 04 30.6 21.3 V 691 – Steward Observatory, Kitt Peak-Spacewatch MPS 109823
2004 01 27.20984 07 46 06.57 +16 41 42.4 21.6 V 691 – Steward Observatory, Kitt Peak-Spacewatch MPS 109823
2004 01 27.23737 07 46 04.79 +16 41 49.2 21.6 V 691 – Steward Observatory, Kitt Peak-Spacewatch MPS 109823
2004 01 27.26508 07 46 03.01 +16 41 56.5 21.6 V 691 – Steward Observatory, Kitt Peak-Spacewatch MPS 109823
2005 05 16.32363 15 56 47.86 -13 06 20.8 19.1 R G96 – Mt. Lemmon Survey MPS 134795
2005 05 16.33159 15 56 47.36 -13 06 17.9 18.6 R G96 – Mt. Lemmon Survey MPS 134795
2005 05 16.33948 15 56 46.88 -13 06 16.4 17.8 R G96 – Mt. Lemmon Survey MPS 134795
2005 05 16.34742 15 56 46.46 -13 06 14.7 16.9 R G96 – Mt. Lemmon Survey MPS 134795
2005 06 04.23895 15 38 27.20 -11 59 44.2 20.1 V 691 – Steward Observatory, Kitt Peak-Spacewatch MPS 135584
2005 06 04.25631 15 38 26.24 -11 59 41.8 20.3 V 691 – Steward Observatory, Kitt Peak-Spacewatch MPS 135584
2005 06 04.27360 15 38 25.26 -11 59 39.5 20.3 V 691 – Steward Observatory, Kitt Peak-Spacewatch MPS 135584
2006 10 23.37199 04 50 56.94 +16 33 35.4 19.2 V G96 – Mt. Lemmon Survey MPS 183973
2006 10 23.37938 04 50 56.61 +16 33 34.8 20.0 V G96 – Mt. Lemmon Survey MPS 183973
2006 10 23.38675 04 50 56.43 +16 33 34.1 20.5 V G96 – Mt. Lemmon Survey MPS 183973
2006 10 23.39406 04 50 56.25 +16 33 32.5 20.6 V G96 – Mt. Lemmon Survey MPS 183973
2008 02 13.33394 12 09 21.45 -00 28 24.0 20.9 V G96 – Mt. Lemmon Survey MPS 237421
2008 02 13.34002 12 09 21.38 -00 28 22.9 20.8 V G96 – Mt. Lemmon Survey MPS 237421
2008 02 13.34610 12 09 21.20 -00 28 20.9 21.3 V G96 – Mt. Lemmon Survey MPS 237421
2008 02 13.35227 12 09 21.06 -00 28 19.6 21.2 V G96 – Mt. Lemmon Survey MPS 237421
2008 03 09.21350 11 52 36.75 +02 07 35.6   691 – Steward Observatory, Kitt Peak-Spacewatch MPS 242015
2008 03 09.23975 11 52 35.34 +02 07 47.6   691 – Steward Observatory, Kitt Peak-Spacewatch MPS 242015
2008 03 09.25745 11 52 34.34 +02 07 55.5   691 – Steward Observatory, Kitt Peak-Spacewatch MPS 242015
2008 03 28.27477 11 35 04.52 +04 34 40.6 20.4 V G96 – Mt. Lemmon Survey MPS 244535
2008 03 28.27981 11 35 04.23 +04 34 42.7 20.5 V G96 – Mt. Lemmon Survey MPS 244535
2008 03 28.28482 11 35 03.94 +04 34 45.1 20.4 V G96 – Mt. Lemmon Survey MPS 244535
2008 03 28.28982 11 35 03.66 +04 34 46.8 20.4 V G96 – Mt. Lemmon Survey MPS 244535
2008 03 29.28176 11 34 12.00 +04 41 51.3 20.5 V G96 – Mt. Lemmon Survey MPS 245621
2008 03 29.28752 11 34 11.67 +04 41 53.5 20.6 V G96 – Mt. Lemmon Survey MPS 245621
2008 03 29.29356 11 34 11.38 +04 41 55.9 20.4 V G96 – Mt. Lemmon Survey MPS 245621
2008 03 29.29942 11 34 11.02 +04 41 58.9 20.6 V G96 – Mt. Lemmon Survey MPS 245621
2008 04 05.27062 11 28 32.84 +05 28 08.6 20.7 V G96 – Mt. Lemmon Survey MPS 246644
2008 04 05.27955 11 28 32.41 +05 28 11.4 20.1 V G96 – Mt. Lemmon Survey MPS 246644
2008 04 05.28839 11 28 32.01 +05 28 14.8 20.4 V G96 – Mt. Lemmon Survey MPS 246644
2008 04 05.29726 11 28 31.65 +05 28 18.4 20.5 V G96 – Mt. Lemmon Survey MPS 246644
2009 08 27.07159 23 48 13.08 -01 34 46.1 19.4 V J75 – OAM Observatory, La Sagra MPS 294868
2009 08 27.08390 23 48 12.59 -01 34 52.8 18.8 V J75 – OAM Observatory, La Sagra MPS 294868
2009 08 27.09622 23 48 12.12 -01 34 57.5 18.9 V J75 – OAM Observatory, La Sagra MPS 294868
2009 08 27.34209 23 48 03.08 -01 36 42.6 19.6 V 691 – Steward Observatory, Kitt Peak-Spacewatch MPS 293115
2009 08 27.35972 23 48 02.40 -01 36 50.2 19.6 V 691 – Steward Observatory, Kitt Peak-Spacewatch MPS 293115
2009 08 27.37732 23 48 01.68 -01 36 57.9 19.7 V 691 – Steward Observatory, Kitt Peak-Spacewatch MPS 293115
2009 08 30.08962 23 46 15.26 -01 57 10.8 19.3 V J75 – OAM Observatory, La Sagra MPS 294868
2009 08 30.10197 23 46 14.70 -01 57 16.6 19.0 V J75 – OAM Observatory, La Sagra MPS 294868
2009 08 30.11428 23 46 14.20 -01 57 21.8 19.7 V J75 – OAM Observatory, La Sagra MPS 294868
2009 09 14.24807 23 34 17.94 -04 02 57.3 18.9   704 – Lincoln Laboratory ETS, New Mexico MPS 295649
2009 09 14.25977 23 34 17.34 -04 03 02.4 19.4   704 – Lincoln Laboratory ETS, New Mexico MPS 295649
2009 09 14.27151 23 34 16.69 -04 03 08.8 19.2   704 – Lincoln Laboratory ETS, New Mexico MPS 295649
2009 09 14.28321 23 34 16.06 -04 03 14.8 19.2   704 – Lincoln Laboratory ETS, New Mexico MPS 295649
2009 09 14.29492 23 34 15.43 -04 03 21.0 19.6   704 – Lincoln Laboratory ETS, New Mexico MPS 295649
2009 09 18.28920 23 30 53.56 -04 37 04.5 19.1 V G96 – Mt. Lemmon Survey MPS 295649
2009 09 18.29551 23 30 53.20 -04 37 07.7 19.3 V G96 – Mt. Lemmon Survey MPS 295649
2009 09 18.30197 23 30 52.88 -04 37 11.0 19.2 V G96 – Mt. Lemmon Survey MPS 295649
2009 09 18.30807 23 30 52.56 -04 37 14.1 19.1 V G96 – Mt. Lemmon Survey MPS 295649
2009 11 16.13661 23 21 15.51 -07 13 13.5 20.8 V G96 – Mt. Lemmon Survey MPS 304593
2009 11 16.14183 23 21 15.66 -07 13 12.9 20.8 V G96 – Mt. Lemmon Survey MPS 304593
2009 11 16.14705 23 21 15.87 -07 13 11.5 20.7 V G96 – Mt. Lemmon Survey MPS 304593
2009 11 16.15230 23 21 16.05 -07 13 10.3 20.4 V G96 – Mt. Lemmon Survey MPS 304593
2011 01 27.31970 08 33 56.23 +14 47 33.8 20.9 V G96 – Mt. Lemmon Survey MPS 368304
2011 01 27.32836 08 33 55.65 +14 47 37.0 20.8 V G96 – Mt. Lemmon Survey MPS 368304
2011 01 27.33704 08 33 55.11 +14 47 39.5 20.6 V G96 – Mt. Lemmon Survey MPS 368304
2011 01 27.34577 08 33 54.54 +14 47 42.5 20.6 V G96 – Mt. Lemmon Survey MPS 368304
2012 06 10.44347 16 55 09.777 -14 51 13.47 19.4 r F51 – Pan-STARRS 1, Haleakala MPS 427107
2012 06 10.45346 16 55 09.144 -14 51 12.61 19.3 r F51 – Pan-STARRS 1, Haleakala MPS 427107
2012 06 15.29440 16 50 21.98 -14 46 02.3 19.4 V G96 – Mt. Lemmon Survey MPS 427107
